Weather in Kundravy

Russia / Chelyabinsk Oblast     54°50′10″N   60°13′18″E
temp.,
°C
wind,
m/s
gust,
m/s
humid.,
%
clouds,
%
prec.,
mm/h
press.,
hPa
HPBL,
m
18 april, sun
sun1823:00+7nnw227552 0.0 102021
02:00+5n356338 0.0 1019122
05:00+3nnw22685 0.0 101926
08:00+5nnw35620 0.0 1018172
11:00+9nnw56482 0.0 10171065
14:00+11nnw674197 0.0 10182119
17:00+4ne81052100 0.1 10231150
20:00+2ne7104698 0.0 10261374
19 april, mon
mon1923:00−1ene610496 0.0 1029859
02:00−2ene69485 0.0 1031926
05:00−4ene57515 0.0 1033980
08:00−3ene68405 0.0 1034989
11:00−1ene67315 0.0 10341431
14:00+1ene67295 0.0 10331705
17:00+1ene66335 0.0 10331732
20:00−2ene47455 0.0 1034173
20 april, tue
tue2023:00−3e23520 0.0 103593
02:00−3se00500 0.0 103510
05:00−4nw11490 0.0 103610
08:00−1nw22395 0.0 1036347
11:00+2w11324 0.0 10351117
14:00+5w233010 0.0 10331411
17:00+7wnw35290 0.0 10311677
20:00+3nw47480 0.0 1031144
21 april, wed
wed2123:00+1wnw23540 0.0 103235
02:000wnw22580 0.0 103226
05:000nw22590 0.0 103315
08:00+3nw23500 0.0 1033199
11:00+7nw22400 0.0 10331026
14:00+10ene22360 0.0 10321334
17:00+10e22375 0.0 10311344
20:00+8se33524 0.0 103341
22 april, thu
thu2223:00+5sse225927 0.0 103426
02:00+4sse22620 0.0 103416
05:00+3ssw336534 0.0 103526
08:00+6ssw355627 0.0 1035190
11:00+10s563990 0.0 10351151
14:00+12s6734100 0.0 10341631
17:00+12ssw5738100 0.0 10331657
20:00+9s3449100 0.0 103468